TimeMDT,TemperatureF,Dew PointF,Humidity,Sea Level PressureIn,VisibilityMPH,Wind Direction,Wind SpeedMPH,Gust SpeedMPH,PrecipitationIn,Events,Conditions,WindDirDegrees,DateUTC
12:15 AM,59.0,56.3,91,30.25,10.0,SE,11.5,-,N/A,,Overcast,140,2013-09-13 06:15:00
12:35 AM,59.0,56.5,91,30.25,10.0,SSE,11.5,-,N/A,Rain,Light Rain,150,2013-09-13 06:35:00
12:55 AM,59.0,56.5,91,30.25,10.0,SSE,10.4,-,N/A,,Overcast,150,2013-09-13 06:55:00
1:15 AM,59.0,56.7,92,30.24,7.0,SSE,8.1,-,N/A,Rain,Rain,150,2013-09-13 07:15:00
1:35 AM,58.8,57.0,94,30.24,7.0,SSE,8.1,-,0.01,Rain,Light Rain,160,2013-09-13 07:35:00
1:55 AM,59.0,56.8,93,30.24,10.0,South,6.9,-,0.01,,Overcast,170,2013-09-13 07:55:00
2:15 AM,59.0,56.8,93,30.23,7.0,SSE,5.8,-,N/A,Rain,Rain,160,2013-09-13 08:15:00
2:35 AM,59.0,56.8,93,30.23,10.0,SSE,4.6,-,N/A,,Overcast,150,2013-09-13 08:35:00
2:55 AM,59.0,56.7,92,30.23,10.0,SSE,6.9,-,N/A,,Overcast,150,2013-09-13 08:55:00
3:15 AM,59.0,56.8,93,30.22,10.0,SSE,6.9,-,N/A,,Overcast,150,2013-09-13 09:15:00
3:35 AM,58.6,56.7,93,30.22,7.0,SE,8.1,-,0.01,Rain,Light Rain,140,2013-09-13 09:35:00
3:55 AM,59.0,56.7,92,30.22,7.0,SSE,8.1,-,0.01,Rain,Rain,150,2013-09-13 09:55:00
4:15 AM,58.8,56.7,93,30.22,7.0,SSE,9.2,-,0.01,Rain,Light Rain,150,2013-09-13 10:15:00
4:35 AM,59.0,56.7,92,30.21,10.0,SE,9.2,-,0.01,,Overcast,140,2013-09-13 10:35:00
4:55 AM,58.6,56.5,93,30.21,10.0,SE,12.7,-,0.01,,Overcast,140,2013-09-13 10:55:00
5:15 AM,58.5,56.3,93,30.21,5.0,SE,11.5,-,0.04,Rain,Heavy Rain,130,2013-09-13 11:15:00
5:35 AM,58.5,56.3,93,30.20,10.0,SE,11.5,-,0.04,,Overcast,140,2013-09-13 11:35:00
5:55 AM,58.6,56.3,92,30.20,10.0,SE,13.8,-,0.04,,Overcast,140,2013-09-13 11:55:00
6:15 AM,58.6,55.9,91,30.21,10.0,SE,13.8,18.4,N/A,,Overcast,140,2013-09-13 12:15:00
6:35 AM,58.5,56.3,93,30.21,5.0,SE,15.0,18.4,0.10,Rain,Heavy Rain,130,2013-09-13 12:35:00
6:55 AM,58.1,55.9,93,30.22,5.0,SE,13.8,-,0.23,Rain,Rain,130,2013-09-13 12:55:00
7:15 AM,57.9,55.9,93,30.23,3.0,SSE,15.0,-,0.05,Rain,Rain,160,2013-09-13 13:15:00
7:35 AM,56.8,54.9,93,30.23,5.0,South,11.5,-,0.10,Rain,Rain,170,2013-09-13 13:35:00
7:55 AM,56.3,54.5,94,30.23,7.0,South,15.0,-,0.15,Rain,Rain,170,2013-09-13 13:55:00
8:15 AM,55.9,53.8,92,30.24,10.0,SSE,12.7,-,0.02,Rain,Rain,160,2013-09-13 14:15:00
8:35 AM,55.8,53.6,92,30.24,7.0,SSE,11.5,-,0.05,Rain,Rain,160,2013-09-13 14:35:00
8:55 AM,55.8,53.6,92,30.24,7.0,SSE,15.0,-,0.07,Rain,Rain,160,2013-09-13 14:55:00
9:15 AM,56.3,54.1,92,30.24,10.0,South,11.5,-,0.01,Rain,Light Rain,170,2013-09-13 15:15:00
9:35 AM,56.7,54.7,93,30.24,7.0,South,10.4,-,0.02,Rain,Rain,180,2013-09-13 15:35:00
9:55 AM,56.8,55.0,94,30.25,7.0,South,11.5,-,0.03,Rain,Light Rain,170,2013-09-13 15:55:00
10:15 AM,57.2,55.4,94,30.25,7.0,South,10.4,-,0.01,Rain,Rain,170,2013-09-13 16:15:00
10:35 AM,57.7,55.8,93,30.25,10.0,South,8.1,-,0.01,,Drizzle,170,2013-09-13 16:35:00
10:55 AM,58.6,55.9,91,30.25,10.0,South,8.1,-,0.01,,Overcast,180,2013-09-13 16:55:00
11:15 AM,59.2,56.1,90,30.24,10.0,South,8.1,-,N/A,,Overcast,170,2013-09-13 17:15:00
11:35 AM,59.0,55.6,88,30.24,10.0,SE,6.9,-,N/A,Rain,Light Rain,140,2013-09-13 17:35:00
11:55 AM,59.0,55.6,88,30.23,10.0,SSE,10.4,-,N/A,Rain,Light Rain,150,2013-09-13 17:55:00
12:15 PM,58.5,55.6,90,30.23,7.0,SE,10.4,-,0.01,Rain,Rain,140,2013-09-13 18:15:00
12:35 PM,58.5,55.9,91,30.23,7.0,SE,8.1,-,0.02,Rain,Rain,140,2013-09-13 18:35:00
12:55 PM,58.8,56.3,91,30.21,10.0,SE,10.4,-,0.03,Rain,Light Rain,130,2013-09-13 18:55:00
1:15 PM,59.4,55.8,88,30.21,10.0,SE,8.1,-,N/A,,Mostly Cloudy,140,2013-09-13 19:15:00
1:35 PM,60.1,56.5,88,30.19,10.0,SE,9.2,-,N/A,,Mostly Cloudy,130,2013-09-13 19:35:00
1:55 PM,61.2,56.5,85,30.19,10.0,SE,8.1,-,N/A,,Mostly Cloudy,130,2013-09-13 19:55:00
2:15 PM,61.3,55.6,81,30.19,10.0,SSE,8.1,-,N/A,,Mostly Cloudy,150,2013-09-13 20:15:00
2:35 PM,61.0,55.6,82,30.19,10.0,SSE,10.4,-,N/A,,Mostly Cloudy,160,2013-09-13 20:35:00
2:55 PM,61.0,56.5,85,30.19,10.0,SE,12.7,-,N/A,Rain,Light Rain,140,2013-09-13 20:55:00
3:15 PM,61.7,56.3,82,30.17,10.0,SSE,13.8,-,N/A,,Mostly Cloudy,150,2013-09-13 21:15:00
3:35 PM,61.7,55.8,81,30.17,10.0,SE,12.7,-,N/A,,Mostly Cloudy,140,2013-09-13 21:35:00
3:55 PM,61.9,55.8,80,30.17,10.0,SE,10.4,-,N/A,,Mostly Cloudy,130,2013-09-13 21:55:00
4:15 PM,62.8,55.8,78,30.16,10.0,SSE,12.7,-,N/A,,Mostly Cloudy,150,2013-09-13 22:15:00
4:35 PM,63.3,55.6,76,30.17,10.0,SSE,12.7,-,N/A,,Mostly Cloudy,150,2013-09-13 22:35:00
4:55 PM,63.5,54.7,73,30.16,10.0,SSE,12.7,-,N/A,,Mostly Cloudy,160,2013-09-13 22:55:00
5:15 PM,63.9,54.9,72,30.16,10.0,SSE,11.5,-,N/A,,Mostly Cloudy,150,2013-09-13 23:15:00
5:35 PM,62.6,54.0,73,30.16,10.0,SSE,12.7,-,N/A,,Mostly Cloudy,150,2013-09-13 23:35:00
5:55 PM,62.6,54.1,74,30.16,10.0,SSE,12.7,-,N/A,,Mostly Cloudy,150,2013-09-13 23:55:00
6:15 PM,62.8,54.0,73,30.16,10.0,SSE,12.7,-,N/A,,Clear,150,2013-09-14 00:15:00
6:35 PM,61.9,53.6,74,30.16,10.0,SSE,9.2,-,N/A,,Clear,160,2013-09-14 00:35:00
6:55 PM,60.4,54.5,81,30.16,10.0,SE,10.4,-,N/A,,Clear,140,2013-09-14 00:55:00
7:15 PM,59.4,54.5,84,30.16,10.0,SSE,5.8,-,N/A,,Scattered Clouds,160,2013-09-14 01:15:00
7:35 PM,58.1,54.5,88,30.16,10.0,SE,3.5,-,N/A,,Scattered Clouds,140,2013-09-14 01:35:00
7:55 PM,57.6,54.5,90,30.17,10.0,SE,4.6,-,N/A,,Clear,140,2013-09-14 01:55:00
8:15 PM,57.2,54.1,89,30.17,10.0,SSE,8.1,-,N/A,,Clear,160,2013-09-14 02:15:00
8:35 PM,57.4,54.1,89,30.17,10.0,SSE,8.1,-,N/A,,Clear,150,2013-09-14 02:35:00
8:55 PM,57.2,53.8,88,30.17,10.0,ESE,4.6,-,N/A,,Clear,120,2013-09-14 02:55:00
9:15 PM,56.1,53.6,91,30.18,10.0,Calm,Calm,-,N/A,,Clear,0,2013-09-14 03:15:00
9:35 PM,56.1,53.6,91,30.18,10.0,Calm,Calm,-,N/A,,Clear,0,2013-09-14 03:35:00
9:55 PM,54.9,52.7,92,30.18,10.0,ENE,3.5,-,N/A,,Clear,60,2013-09-14 03:55:00
10:15 PM,54.5,52.5,93,30.18,10.0,Calm,Calm,-,N/A,,Clear,0,2013-09-14 04:15:00
10:35 PM,54.7,52.5,92,30.18,10.0,Calm,Calm,-,N/A,,Clear,0,2013-09-14 04:35:00
10:55 PM,54.5,52.7,94,30.18,10.0,Calm,Calm,-,N/A,,Clear,0,2013-09-14 04:55:00
11:15 PM,54.1,52.3,94,30.19,10.0,ESE,4.6,-,N/A,,Clear,110,2013-09-14 05:15:00
11:35 PM,54.9,52.7,92,30.18,10.0,ESE,4.6,-,N/A,,Clear,120,2013-09-14 05:35:00
11:55 PM,54.1,52.0,92,30.17,10.0,ESE,4.6,-,N/A,,Clear,120,2013-09-14 05:55:00